Location: Newark
(43.0000°N, 1.6781°W)
Time: 08:21:03
(UTC+00:00)

Vanguard 1 - Pass Details

Date: 08 December 2021
Orbit: 652 x 3830 km, 34.2° (Epoch: 16 January)

Event Time Altitude Azimuth Distance (km) Brightness Sun altitude
Rises 21:26:43 0° 217° (SW) 6,122 14.3 -52.7°
Reaches altitude 10° 21:30:30 10° 210° (SSW) 5,483 13.9 -53.3°
Enters shadow 21:35:26 24° 198° (SSW) 4,831 13.4 -54.2°
